Location: Fornova de Taro
(44.7000°N, 10.1000°E)
Time: 00:01:28
(UTC+00:00)

Helios 1B rocket - Pass Details

Date: 26 May 2022
Orbit: 569 x 578 km, 98.2° (Epoch: 02 July)

Event Time Altitude Azimuth Distance (km) Brightness Sun altitude
Rises 02:39:00 0° 12° (NNE) 2,784 6.9 -9.7°
Reaches altitude 10° 02:41:09 10° 12° (NNE) 1,882 5.9 -9.4°
Maximum altitude 02:45:14 82° 284° (WNW) 582 2.4 -8.8°
Drops below altitude 10° 02:49:16 10° 198° (SSW) 1,866 4.5 -8.3°
Enters shadow 02:49:55 - 198° (SSW) 2,138 4.8 -8.2°
